User: anonymous
Location: Innerarity Island Observatory
(30.3139°N, 87.4867°W)
Time: 09:03:20
(UTC-05:00)
Language:

OPAL - Orbit

View from above orbital plane
View from above orbital plane
View from above satellite
View from above satellite

Ground track
Ground track

The orbit data is extracted from the following two-line orbital elements,

1 26063U 00004C   14244.01600275  .00000083  00000-0  48354-4 0   447
2 26063 100.2219 044.0483 0035943 304.7590 055.0209 14.36390441764901
Epoch (UTC): 01 September 2014 00:23:02
Eccentricity: 0.0035943
inclination: 100.2219°
perigee height: 745 km
apogee height: 796 km
right ascension of ascending node: 44.0483°
argument of perigee: 304.7590°
revolutions per day: 14.36390441
mean anomaly at epoch: 55.0209°
orbit number at epoch: 76490

The dashed part of the orbit path shows where the satellite is in the earth's shadow,  

DLR